This is the latest recevied weather packets stored in our database for station/object KF0TNT. If no packets are shown the sender has not sent any weather packets the latest 10 day(s).
| Time | Temp. | Humidity | Pressure | Rain* | Wind** | Luminosity | Snow |
|---|---|---|---|---|---|---|---|
| 1777483605 | 5.56° C | 80% | 1021 hPa | 0 mm | - | 904 W/m² | - |
| 1777483300 | 5° C | 81% | 1021 hPa | 0 mm | - | 255 W/m² | - |
| 1777482997 | 4.44° C | 84% | 1021.1 hPa | 0 mm | - | 453 W/m² | - |
| 1777482693 | 3.89° C | 85% | 1021.2 hPa | 0 mm | - | 187 W/m² | - |
| 1777482389 | 3.89° C | 84% | 1021.6 hPa | 0 mm | - | 263 W/m² | - |
| 1777482087 | 3.89° C | 85% | 1021.7 hPa | 0 mm | - | 326 W/m² | - |
| 1777481785 | 3.89° C | 85% | 1021.5 hPa | 0 mm | - | 179 W/m² | - |
| 1777481482 | 3.89° C | 85% | 1021.3 hPa | 0 mm | - | 178 W/m² | - |
| 1777481178 | 3.89° C | 84% | 1021.7 hPa | 0 mm | - | 206 W/m² | - |
| 1777480875 | 3.89° C | 86% | 1021.8 hPa | 0 mm | - | 197 W/m² | - |
| 1777480571 | 3.89° C | 86% | 1021.7 hPa | 0 mm | - | 197 W/m² | - |
| 1777480269 | 3.33° C | 86% | 1021.8 hPa | 0 mm | - | 221 W/m² | - |
| 1777479964 | 3.33° C | 86% | 1021.7 hPa | 0 mm | - | 175 W/m² | - |
| 1777479661 | 3.33° C | 87% | 1021.7 hPa | 0 mm | - | 175 W/m² | - |
| 1777479360 | 3.33° C | 87% | 1021.5 hPa | 0 mm | - | 120 W/m² | - |
| 1777479055 | 3.33° C | 87% | 1022.1 hPa | 0 mm | - | 90 W/m² | - |
| 1777478752 | 3.33° C | 87% | 1021.8 hPa | 0 mm | - | 200 W/m² | - |
| 1777478448 | 3.33° C | 87% | 1021.7 hPa | 0 mm | - | 139 W/m² | - |
| 1777478145 | 3.33° C | 88% | 1021.8 hPa | 0 mm | - | 97 W/m² | - |
| 1777477842 | 3.33° C | 88% | 1022.2 hPa | 0 mm | - | 185 W/m² | - |
| 1777477537 | 3.33° C | 87% | 1022.1 hPa | 0 mm | - | 123 W/m² | - |
| 1777477234 | 3.33° C | 87% | 1022.1 hPa | 0 mm | - | 107 W/m² | - |
| 1777476930 | 3.33° C | 86% | 1021.7 hPa | 0 mm | - | 118 W/m² | - |
| 1777476629 | 3.89° C | 86% | 1022 hPa | 0 mm | - | 189 W/m² | - |
| 1777476325 | 3.33° C | 85% | 1022.2 hPa | 0 mm | - | 234 W/m² | - |
* Rain latest hour (hover to see other rain measurements)
** Current wind speed in m/s (hover to see current wind gust speed)